Theta_e
298 296 297 297 297 297 296 296 296 294 294 295 295 293 292 291 289 288 287 286 285 285 286 288 292 295 296 299 299 299 300 301 301 301 301 302 301 301 300 300 301 302 308 316
296 298 297 297 297 297 297 297 295 295 294 294 294 292 289 291 290 287 286 285 284 284 285 288 290 293 296 297 299 300 300 301 301 301 302 301 301 301 300 301 302 304 308 317
297 298 298 297 297 297 297 296 296 294 294 294 294 290 290 291 290 288 286 284 283 282 283 285 287 290 294 296 297 299 300 301 302 302 301 301 301 301 300 301 304 311 312 320
297 298 298 297 298 295 291 295 294 294 292 294 291 290 293 289 290 288 285 283 282 282 283 284 285 289 290 294 297 298 299 301 302 302 302 301 301 301 301 302 308 317 319 322
298 297 297 292 298 295 293 294 293 293 293 290 296 290 289 288 288 286 283 282 281 281 282 283 284 285 287 291 295 297 300 301 301 302 302 301 301 301 302 305 311 318 321 324
296 296 295 296 295 294 293 290 293 293 294 293 291 293 291 284 283 283 281 280 280 281 281 282 284 285 287 290 294 297 299 301 302 302 303 302 303 306 309 314 313 317 322 324
295 297 296 294 293 294 289 288 287 291 288 292 294 294 289 282 282 279 278 278 280 280 281 281 283 284 286 290 292 295 297 299 301 303 305 305 307 309 310 311 315 315 319 321
290 296 294 294 290 290 292 287 288 291 294 292 294 293 291 281 282 280 279 279 280 280 281 281 282 283 284 286 289 291 294 298 299 302 304 305 307 309 309 311 312 314 315 316
285 291 294 292 291 291 293 293 292 287 289 290 292 293 286 286 284 279 277 280 279 279 280 280 281 282 283 284 286 287 290 293 297 300 301 304 306 307 308 309 306 312 313 312
288 292 295 294 291 292 293 292 290 289 289 291 294 293 292 286 281 279 276 279 279 279 280 280 281 282 283 284 285 286 288 290 292 295 297 300 301 304 304 304 303 307 306 305
289 290 294 293 285 288 291 292 291 290 291 290 293 292 283 281 280 278 278 279 279 279 279 280 280 281 282 283 284 285 287 288 289 291 293 296 298 298 297 300 304 303 302 305
293 287 290 288 283 287 289 284 287 287 290 290 292 291 284 280 276 279 279 279 279 279 279 279 280 280 281 282 283 283 285 286 286 288 291 292 295 296 296 297 297 295 295 296
292 293 291 295 291 291 287 288 289 286 287 287 289 292 281 281 282 279 279 278 278 278 279 279 279 279 280 281 281 282 283 284 285 287 287 289 291 292 293 296 296 295 296 296
294 290 289 294 292 281 287 286 288 288 282 284 287 288 288 282 278 277 277 278 278 278 278 279 279 279 279 280 280 281 282 283 285 285 286 287 288 289 290 292 292 291 287 289
292 289 286 283 277 279 283 288 285 285 281 287 285 283 286 281 275 276 277 277 278 278 278 278 279 279 280 280 281 281 282 283 285 286 288 289 290 290 290 291 287 286 286 285
290 290 287 290 279 276 287 284 282 283 278 280 275 281 276 281 280 279 277 277 277 277 278 278 279 279 280 281 281 281 282 282 285 288 289 291 292 288 284 282 283 283 283 284
288 289 286 291 284 287 288 286 281 279 275 282 286 285 269 275 277 279 279 278 278 278 279 280 280 280 282 283 284 284 283 286 288 286 284 283 284 284 283 283 283 283 284 284
288 289 291 293 284 288 288 272 279 284 281 276 276 275 276 279 281 280 279 278 279 281 281 280 281 282 283 283 283 283 283 282 283 283 283 283 283 283 282 283 283 284 284 284
288 290 288 290 291 291 291 284 285 291 293 280 281 273 281 281 281 282 279 278 278 278 279 279 280 281 281 281 281 282 282 283 283 283 283 283 283 282 283 284 284 283 283 283
293 287 287 293 290 290 289 281 287 284 295 279 285 280 281 281 279 277 281 279 279 279 279 280 280 281 281 282 282 283 283 283 283 282 282 282 283 283 283 283 282 283 283 283
293 293 289 292 291 291 285 286 289 295 299 286 289 289 284 281 285 284 281 280 280 281 281 281 281 281 282 282 282 283 282 283 282 282 283 283 283 283 283 282 282 282 282 282
290 290 289 290 294 296 288 289 293 293 291 295 290 292 290 289 286 283 282 281 281 281 282 282 282 282 282 282 282 283 283 283 282 282 282 282 282 282 281 281 281 281 281 281
293 294 292 293 294 289 291 294 297 297 297 294 295 295 293 289 285 283 283 282 282 282 282 282 282 283 283 283 282 283 283 283 283 282 282 281 281 281 280 281 281 281 280 280
291 291 292 293 290 290 295 296 295 297 298 297 297 297 294 291 287 285 283 283 283 283 283 283 283 283 283 283 283 282 282 282 281 281 281 281 281 281 281 280 280 279 280 280
294 292 293 292 292 293 296 298 299 296 298 297 296 296 294 291 289 288 285 285 284 284 284 285 285 284 283 283 283 282 281 281 281 280 280 281 281 280 280 280 280 280 280 280
292 294 296 297 296 297 297 299 299 297 298 298 296 294 293 292 291 289 287 287 286 286 286 285 285 284 284 283 283 282 282 282 282 281 281 280 280 280 280 280 280 280 279 279
Wind_Speed
4 4 2 4 3 7 7 9 13 10 6 4 3 3 4 7 10 17 19 22 25 29 23 19 15 13 13 6 5 8 9 9 13 15 16 17 17 16 17 16 17 20 22 19
4 2 2 5 6 7 10 13 8 7 4 4 2 5 3 3 5 13 16 21 25 31 30 22 19 16 12 13 4 1 6 6 9 15 16 16 16 17 16 15 16 17 21 20
3 1 4 5 6 8 8 5 4 8 11 3 3 6 2 2 3 14 15 18 22 27 32 29 24 20 15 11 10 8 4 5 7 10 14 16 18 18 15 14 15 16 19 23
4 3 4 9 5 4 5 4 10 16 3 3 2 4 4 1 4 12 20 21 24 30 31 27 26 22 19 16 9 8 5 5 6 10 13 16 18 17 15 15 13 15 17 22
1 4 5 3 5 1 8 13 14 7 3 3 3 2 5 3 5 15 18 22 24 28 28 30 27 24 20 17 12 8 6 6 6 7 11 15 16 15 16 14 13 12 15 20
4 3 4 4 7 1 10 5 1 3 1 2 3 3 4 2 4 11 17 20 22 26 28 28 24 23 22 17 14 8 7 6 4 5 8 10 8 8 9 11 11 12 16 23
5 2 1 2 6 1 9 6 4 5 4 4 1 2 6 4 4 4 13 24 23 25 27 29 29 28 24 21 17 12 9 9 6 5 3 3 5 6 8 9 11 10 18 24
3 7 2 4 3 3 5 4 3 4 4 6 4 5 4 5 7 13 20 18 20 26 27 27 26 25 23 21 19 16 11 8 8 4 1 3 7 7 7 10 10 8 16 16
3 6 1 1 1 2 3 5 2 1 3 3 3 1 4 4 8 12 18 17 21 26 28 26 25 24 22 21 19 17 14 11 7 6 4 1 4 4 6 8 10 13 20 24
4 4 3 2 1 3 4 1 2 1 5 5 5 4 3 6 12 12 13 17 21 24 25 24 24 23 21 18 16 15 14 13 11 8 7 6 6 7 9 12 13 14 17 23
4 3 4 2 1 4 2 2 2 1 1 2 4 6 4 3 7 8 10 16 18 21 21 20 19 18 17 15 15 15 14 12 12 11 11 11 13 13 18 18 20 20 24 25
4 4 5 6 4 3 2 5 3 3 4 2 2 6 3 5 6 6 10 14 15 15 16 16 15 16 15 15 15 15 14 14 16 15 14 18 19 19 22 28 33 37 39 39
6 1 4 7 2 0 2 3 3 3 2 3 1 6 0 2 4 8 9 11 13 13 14 13 13 15 15 15 15 15 15 16 18 19 23 27 30 31 35 36 37 38 39 40
6 3 6 5 7 1 2 3 4 3 2 2 6 11 10 7 6 10 11 10 11 12 12 11 12 13 15 16 16 16 16 17 21 25 30 34 38 40 43 42 42 40 40 41
3 3 3 5 5 1 4 5 4 6 5 4 4 5 16 9 7 11 12 13 10 11 10 9 10 12 14 15 16 18 20 22 25 33 39 41 41 41 41 40 40 38 38 39
1 2 1 4 2 3 5 5 6 4 3 7 3 8 4 10 12 17 19 18 17 12 9 9 10 10 13 15 16 20 27 33 37 39 41 40 38 40 39 40 39 37 37 36
4 3 2 5 2 5 6 7 5 2 3 5 2 5 3 5 8 7 7 9 11 12 9 10 13 13 14 17 19 23 27 31 34 37 38 38 36 35 35 35 33 33 33 30
5 4 2 4 4 4 6 2 3 5 6 7 2 5 6 4 4 5 2 2 6 10 7 6 11 16 19 21 23 25 28 30 32 33 33 32 31 30 31 29 29 28 26 26
2 4 2 1 2 6 2 5 6 6 6 10 8 3 5 1 5 5 7 7 8 12 14 15 14 14 16 21 23 24 27 27 27 29 29 28 26 27 26 24 24 24 23 23
5 5 3 2 2 4 7 4 7 3 4 12 15 11 10 7 2 4 11 11 12 13 15 16 17 18 18 21 21 21 25 25 25 25 25 23 21 21 20 20 20 19 18 19
3 2 3 3 4 8 6 7 10 5 6 20 27 27 25 6 8 12 16 17 18 19 19 18 17 17 17 17 17 19 20 20 21 20 20 19 18 17 16 16 16 15 15 14
7 8 4 3 2 6 14 8 8 5 4 30 29 29 30 16 12 20 18 18 17 17 17 17 16 16 16 15 13 15 16 17 17 16 15 15 14 14 13 12 13 12 11 10
2 6 4 8 6 3 34 4 15 7 16 29 31 31 26 20 22 22 21 20 18 17 16 16 15 15 15 15 14 12 13 14 14 14 14 13 13 12 11 9 9 8 8 7
5 6 3 3 3 10 21 26 15 11 12 26 28 31 30 24 24 24 22 22 22 21 20 20 20 19 17 17 16 16 15 15 13 12 11 10 9 8 7 6 5 4 4 3
3 8 5 6 8 5 18 30 25 17 17 24 28 30 30 27 28 26 26 25 23 22 23 22 21 21 19 18 17 17 15 14 13 11 8 7 6 5 3 2 1 0 1 1
10 7 6 6 8 3 2 12 30 29 23 27 31 32 31 28 28 28 27 26 26 26 25 25 24 23 22 20 19 18 16 15 13 12 10 9 8 6 4 4 5 4 4 2
Wind_Direction
17 39 319 285 225 245 265 264 271 273 275 303 247 254 317 343 25 7 357 345 337 335 340 348 358 355 351 341 249 241 241 227 226 232 243 258 266 263 258 256 261 247 245 247
17 262 221 283 277 270 270 279 279 274 244 301 280 256 226 297 52 20 354 343 337 340 346 357 5 7 12 9 3 286 254 236 223 233 250 266 277 270 263 263 260 252 245 246
178 337 336 311 293 320 295 245 263 290 314 251 292 294 184 202 180 0 357 344 342 343 343 351 359 1 10 4 356 338 294 258 240 242 257 270 279 272 265 265 257 248 242 234
243 344 316 303 280 26 309 242 298 307 294 254 106 287 218 257 283 4 354 351 345 346 350 352 354 359 4 1 345 309 302 285 265 258 265 277 278 270 264 267 257 247 240 231
289 5 329 334 287 144 258 307 298 278 190 21 183 43 271 5 319 341 349 347 344 347 348 351 356 354 356 358 357 343 335 317 293 283 283 281 271 264 263 265 258 262 234 236
263 292 169 248 309 200 301 329 310 43 86 337 237 144 274 327 294 323 335 341 347 347 349 353 357 358 2 1 358 358 356 352 331 305 290 283 260 242 255 261 256 247 244 203
335 229 324 356 315 145 23 359 356 359 7 240 215 208 262 192 255 281 318 329 346 350 353 353 359 1 2 5 4 3 1 6 7 338 270 274 247 226 238 241 252 257 223 180
46 323 47 332 152 209 27 90 110 280 325 291 274 235 290 199 215 353 342 340 346 359 359 359 360 360 2 4 6 8 8 12 23 9 18 255 225 221 222 225 234 218 198 195
74 278 107 305 306 149 313 45 168 236 225 293 253 261 109 216 324 340 342 349 350 356 360 0 1 2 4 9 10 12 18 23 28 31 33 103 198 178 199 194 178 166 175 177
188 318 191 203 303 32 86 47 63 33 350 311 306 290 251 319 327 330 340 347 350 356 1 3 4 4 4 8 12 16 23 25 32 44 75 97 111 139 155 164 140 147 152 150
132 117 285 38 358 172 6 48 39 216 185 245 306 282 193 218 296 306 319 343 351 357 1 4 6 8 7 9 21 24 31 44 57 67 87 106 111 120 127 131 131 138 138 142
190 150 276 239 258 220 119 151 149 112 298 266 288 276 169 196 252 309 339 348 354 359 8 11 14 18 23 26 34 43 50 63 73 85 102 112 117 122 123 122 122 126 125 122
178 191 338 343 1 35 125 184 178 144 58 225 243 280 183 282 332 6 353 358 4 6 21 27 31 41 48 48 55 64 71 79 93 107 114 115 115 115 114 117 117 116 114 110
137 139 176 200 231 149 317 201 174 132 121 245 227 290 306 333 348 340 346 6 29 29 29 41 50 57 66 72 74 81 87 99 111 112 112 112 112 111 110 111 107 103 100 97
123 197 188 247 238 246 244 221 199 177 206 178 256 260 293 321 322 325 358 359 24 43 48 50 56 68 75 85 94 98 102 104 110 108 105 102 102 99 99 97 99 101 102 102
54 258 111 289 351 259 278 235 199 200 202 274 340 287 214 313 340 357 356 1 4 18 54 73 79 81 87 92 101 109 113 114 112 108 105 103 100 102 106 111 108 107 104 100
122 123 57 273 327 323 326 218 194 197 212 155 205 243 351 325 337 337 351 10 13 5 23 62 77 82 90 100 108 113 113 111 112 109 106 107 107 108 110 110 107 103 101 99
135 126 142 284 4 11 244 292 150 191 219 199 300 255 234 257 307 279 209 142 114 95 72 79 103 114 116 119 120 116 111 108 106 106 106 105 107 108 108 107 104 101 99 98
120 130 123 74 271 288 300 221 174 166 280 177 183 218 222 202 308 264 191 156 141 129 119 111 105 104 112 116 116 114 112 111 109 107 106 107 110 110 107 103 102 101 98 92
118 102 114 152 139 206 238 234 196 141 313 182 167 171 164 156 44 255 179 154 137 125 122 116 111 112 114 111 110 114 111 110 108 109 110 108 105 104 104 103 101 96 90 86
172 171 178 184 245 285 223 170 157 79 236 173 182 173 163 180 210 164 169 155 142 134 130 127 126 125 126 121 122 119 115 116 115 115 116 117 115 113 110 107 101 96 91 90
170 156 191 156 202 291 157 121 163 207 162 176 179 177 183 188 178 172 167 158 145 138 137 135 139 142 138 135 136 132 132 129 126 124 123 124 127 128 122 114 103 97 89 79
275 190 178 188 213 210 186 235 190 180 178 181 179 182 183 184 177 177 171 167 158 155 155 154 161 164 159 154 151 152 145 142 143 145 148 147 142 131 116 102 88 77 74 62
243 179 215 49 272 225 213 217 216 211 197 187 184 181 186 185 182 182 181 178 174 172 173 175 178 181 179 175 171 170 170 166 155 149 149 145 139 129 118 111 107 90 67 40
195 143 190 263 268 272 238 225 220 199 192 190 190 191 190 189 188 191 188 188 185 183 183 186 189 190 188 187 183 182 184 180 167 164 168 161 148 146 151 149 132 8 294 337
192 188 174 223 217 183 241 231 214 212 199 192 192 191 196 197 194 193 196 194 193 192 192 194 196 197 198 197 195 193 194 193 187 185 191 192 190 195 207 222 235 234 226 228